Lexington Weather

Lexington, Massachusetts, USA

77°F
8/3/2020 7:30am 
  • Lexington Conditions: Clear
  • Temperature: 76.6°F / 24.8°C 
  • Dew Point: 73.4°FDecreased 2.0°Fsince last hour.
  • Relative Humidity: 90%Decreased 6.0% since last hour.
  • Wind: Wind from WSW WSW 2 mph, 10-min avg: 3 mph, gust: 9 mph
  • Barometer: 29.84 in Steady
  • Visibility: 10 miles
  • Rain Today: 0.00 in
  •   

Regional Weather Roundup
for Boston / Norton, MA

        
000
ASUS41 KBOX 012105
RWRBOX

REGIONAL WEATHER ROUNDUP
NATIONAL WEATHER SERVICE BOSTON/NORTON MA
500 PM EDT SAT AUG 01 2020

NOTE:  "FAIR" INDICATES FEW OR NO CLOUDS BELOW 12,000 FEET WITH NO 
SIGNIFICANT WEATHER AND/OR OBSTRUCTIONS TO VISIBILITY.

MAZALL-012200-
EASTERN MASSACHUSETTS
  
CITY           SKY/WX    TMP DP  RH WIND       PRES   REMARKS
BOSTON         MOSUNNY   78  62  57 E14       29.93S                  
BEVERLY        SUNNY     81  62  52 SE12      29.92S                  
LAWRENCE       MOSUNNY   86  65  49 E6        29.93S                  
BEDFORD        MOSUNNY   88  63  43 SE9       29.90S                  
BLUE HILL      NOT AVBL                                               
NORWOOD        SUNNY     87  65  47 SE7       29.91S                  
MARSHFIELD     SUNNY     81  66  61 E7        29.94S                  
PLYMOUTH       SUNNY     84  65  52 NE10      29.93S                  
TAUNTON        SUNNY     87  67  51 SE12      29.91S HX  90           
NEW BEDFORD    SUNNY     84  69  60 SE13      29.93R                  
$$

MAZALL-012200-
CAPE COD AND THE ISLANDS
  
CITY           SKY/WX    TMP DP  RH WIND       PRES   REMARKS
FALMOUTH       MOSUNNY   81  66  61 S8        29.94S                  
HYANNIS        SUNNY     83  67  58 S8        29.93S                  
CHATHAM        SUNNY     81  67  62 S5        29.96S                  
PROVINCETOWN   SUNNY     83  65  54 E6        29.95S                  
NANTUCKET      SUNNY     76  66  71 SW9       29.95S                  
MARTHAS VNYRD  SUNNY     80  67  64 SW8       29.95S                  
$$
 
MAZALL-012200-
CENTRAL AND WESTERN MASSACHUSETTS
  
CITY           SKY/WX    TMP DP  RH WIND       PRES   REMARKS
WORCESTER      SUNNY     87  55  33 VRB6      29.96S                  
FITCHBURG      MOSUNNY   90  54  29 NW8       29.93S                  
ORANGE         MOSUNNY   87  57  35 CALM      29.94S                  
SPRINGFIELD    MOSUNNY   89  60  37 CALM      29.90F                  
WESTFIELD      MOSUNNY   92  57  30 NW7G23    29.90F HX  90           
NORTH ADAMS    SUNNY     86  59  39 W6        29.94F                  
PITTSFIELD     SUNNY     85  55  35 W6        29.95F                  
$$
 
RIZALL-012200-
RHODE ISLAND
  
CITY           SKY/WX    TMP DP  RH WIND       PRES   REMARKS
PROVIDENCE     MOSUNNY   87  67  51 S15G21    29.92S HX  90           
NEWPORT        SUNNY     83  69  62 S8        29.93S                  
BLOCK ISLAND   SUNNY     80  71  74 S13       29.94F                  
SMITHFIELD     SUNNY     87  58  37 NW5       29.93S                  
WESTERLY       SUNNY     82  69  64 S12       29.93F                  
$$
 
CTZALL-012200-
CONNECTICUT
  
CITY           SKY/WX    TMP DP  RH WIND       PRES   REMARKS
BRADLEY INTL   PTSUNNY   88  57  34 S7        29.90S                  
HARTFORD       MOSUNNY   90  61  37 S6        29.89F HX  90           
BRIDGEPORT     SUNNY     86  63  45 S9        29.92F                  
DANBURY        SUNNY     85  63  47 S9        29.94S                  
GROTON         SUNNY     80  72  76 SW9       29.91F                  
NEW HAVEN      SUNNY     86  66  51 S8        29.92F                  
CHESTER        FAIR      88  61  40 S8        29.94S                  
MERIDEN        SUNNY     89  58  34 S12       29.91S                  
WILLIMANTIC    SUNNY     89  58  34 VRB5      29.91F                  
OXFORD         MOSUNNY   84  63  49 S7        29.95F                  
$$

MEZ002-015-021-024-NHZ003-005-008-011-012-014-VTZ005-008-012200-
NORTHERN NEW ENGLAND
  
CITY           SKY/WX    TMP DP  RH WIND       PRES   REMARKS
PORTLAND ME    MOSUNNY   81  61  50 S12       29.92R                  
BANGOR ME      MOSUNNY   85  59  41 VRB5      29.90S                  
CONCORD NH     SUNNY     88  57  34 W7        29.92S                  
MANCHESTER NH  MOSUNNY   90  55  30 W6        29.90S                  
NASHUA NH      SUNNY     89  59  36 NW7       29.92S                  
PORTSMOUTH NH  MOSUNNY   82  59  46 SE9       29.91                   
JAFFREY NH     MOSUNNY   85  57  38 CALM      29.97S                  
KEENE NH       SUNNY     86  60  41 NW3       29.93S                  
BURLINGTON VT  PTSUNNY   87  59  38 N9        29.92S                  
MT. WASHINGTON PTSUNNY   57  50  77 NW14        N/A                   
$$

NYZ052-076-012200-
EASTERN NEW YORK
  
CITY           SKY/WX    TMP DP  RH WIND       PRES   REMARKS
ALBANY         PTSUNNY   84  59  42 VRB3      29.92F                  
NEW YORK CITY  PTSUNNY   87  58  37 S15       29.91F                  
$$
 
ANZALL-012200-
MARINE OBSERVATIONS
  
STATION/POSITION TIME  TEMP    WIND        PRES    VSBY  WAVE
                       AIR SEA DIR/SP/G                  HT/PER
                 (UTC) (F)     (DEG/KT/KT) (MB)    (MI)  (FT/S)
BOSTON BUOY      2050   74 75  120/ 10/ 12 1012.3S         2/10
BUZZARDS BAY     2000          190/ 14/ 15 1014.6F
NANTUCKET SOUND  2050      76  210/ 14/ 16   N/A           1/ 2
MASS BAY-STELLWA 2004   74     140/  8/ 10 1011.5F  1 7/8  2/ 8
ISLE OF SHOALS   2000   73     140/ 12/ 12 1012.8F
S OF BLOCK IS    2026      74                N/A           3/12
$$

......................KEY.........................
  SKY/WX - SKY CONDITION/PRESENT WEATHER
  TMP    - TEMPERATURE IN FAHRENHEIT
  DWPT   - DEWPOINT IN FAHRENHEIT
  RH     - RELATIVE HUMIDITY IN PERCENT
  WIND   - DIRECTION AND SPEED IN MPH
  PRES   - MEAN SEA LEVEL PRESSURE IN INCHES OF HG
  WCI    - WIND CHILL INDEX
  VSB    - VISIBILITY IN MILES
  HX     - HEAT INDEX
  TC     - TEMPERATURE IN CELSIUS
  VRB    - VARIABLE WIND DIRECTION
  N/A    - NOT AVAILABLE
  
      

Other recent Regional Weather Roundups

Mon Aug 3, 7:04am

Mon Aug 3, 6:04am

Mon Aug 3, 5:04am

Mon Aug 3, 4:04am

Mon Aug 3, 3:04am

Mon Aug 3, 2:04am

Mon Aug 3, 1:04am

Mon Aug 3, 12:05am

Sun Aug 2, 11:04pm

Sun Aug 2, 10:04pm

Sun Aug 2, 9:04pm

Sun Aug 2, 8:04pm

Sun Aug 2, 7:04pm

Sun Aug 2, 6:04pm

Sun Aug 2, 5:04pm

Sun Aug 2, 4:05pm

Sun Aug 2, 3:04pm

Sun Aug 2, 2:05pm

Sun Aug 2, 1:04pm

Sun Aug 2, 12:04pm

Sun Aug 2, 11:04am

Sun Aug 2, 10:04am

Sun Aug 2, 9:05am

Sun Aug 2, 8:05am

Sun Aug 2, 7:04am

Sun Aug 2, 6:04am

Sun Aug 2, 5:04am

Sun Aug 2, 4:05am

Sun Aug 2, 3:04am

Sun Aug 2, 2:04am

Sun Aug 2, 1:04am

Sun Aug 2, 12:05am

Sat Aug 1, 11:04pm

Sat Aug 1, 10:04pm

Sat Aug 1, 9:04pm

Sat Aug 1, 8:05pm

Sat Aug 1, 7:04pm

Sat Aug 1, 6:04pm

Sat Aug 1, 4:05pm

Sat Aug 1, 3:04pm

Sat Aug 1, 2:04pm

Sat Aug 1, 1:04pm

Sat Aug 1, 12:04pm

Sat Aug 1, 11:05am

Sat Aug 1, 10:05am

Sat Aug 1, 9:04am

Sat Aug 1, 8:04am

Sat Aug 1, 7:04am

Sat Aug 1, 6:04am

Sat Aug 1, 5:04am

Sat Aug 1, 4:05am

Sat Aug 1, 3:04am

Sat Aug 1, 2:04am

Sat Aug 1, 1:04am

Sat Aug 1, 12:05am

Fri Jul 31, 11:05pm

Fri Jul 31, 10:04pm

Fri Jul 31, 9:04pm

Fri Jul 31, 8:05pm

Fri Jul 31, 7:05pm

Fri Jul 31, 6:04pm

Fri Jul 31, 5:04pm

Fri Jul 31, 4:05pm

Fri Jul 31, 3:04pm

Fri Jul 31, 2:05pm

Fri Jul 31, 1:04pm

Fri Jul 31, 12:04pm

Fri Jul 31, 11:04am

Fri Jul 31, 10:04am

Fri Jul 31, 9:04am

Fri Jul 31, 8:04am

Fri Jul 31, 7:04am

Fri Jul 31, 6:04am

Fri Jul 31, 5:04am

Fri Jul 31, 4:04am

Fri Jul 31, 3:04am

Fri Jul 31, 2:04am

Fri Jul 31, 1:05am

Fri Jul 31, 12:04am

Thu Jul 30, 11:04pm

Thu Jul 30, 10:04pm

Thu Jul 30, 9:04pm

Thu Jul 30, 8:04pm

Thu Jul 30, 7:05pm

Thu Jul 30, 6:04pm

Thu Jul 30, 5:04pm

Thu Jul 30, 4:05pm

Thu Jul 30, 3:04pm

Thu Jul 30, 2:05pm

Thu Jul 30, 1:04pm

Thu Jul 30, 12:04pm

Thu Jul 30, 11:04am

Thu Jul 30, 10:05am

Thu Jul 30, 9:04am

Thu Jul 30, 8:04am

Thu Jul 30, 7:04am

Thu Jul 30, 6:04am

Thu Jul 30, 5:04am

Thu Jul 30, 4:04am

Thu Jul 30, 3:04am

Thu Jul 30, 2:04am

Thu Jul 30, 1:04am

Thu Jul 30, 12:04am

Wed Jul 29, 11:04pm

Wed Jul 29, 10:04pm

Wed Jul 29, 9:04pm

Wed Jul 29, 8:04pm

Wed Jul 29, 7:05pm

Wed Jul 29, 6:05pm

Wed Jul 29, 5:04pm

Wed Jul 29, 4:04pm

Wed Jul 29, 3:04pm

Wed Jul 29, 2:04pm

Wed Jul 29, 1:05pm

Wed Jul 29, 12:05pm

Wed Jul 29, 11:04am

Wed Jul 29, 10:04am

Wed Jul 29, 9:04am

Wed Jul 29, 8:04am

Wed Jul 29, 7:04am

Wed Jul 29, 6:04am

Wed Jul 29, 5:04am

Wed Jul 29, 4:04am

Wed Jul 29, 3:04am

Wed Jul 29, 2:04am

Wed Jul 29, 1:04am

Wed Jul 29, 12:05am

Tue Jul 28, 11:05pm

Tue Jul 28, 10:05pm

Tue Jul 28, 9:04pm

Tue Jul 28, 8:04pm

Tue Jul 28, 7:04pm

Tue Jul 28, 6:04pm

Tue Jul 28, 5:04pm

Tue Jul 28, 4:05pm

Tue Jul 28, 3:05pm

Tue Jul 28, 2:04pm

Tue Jul 28, 1:05pm

Tue Jul 28, 12:04pm

Tue Jul 28, 11:04am

Tue Jul 28, 10:04am

Tue Jul 28, 9:04am

Tue Jul 28, 8:04am

Tue Jul 28, 7:04am

Tue Jul 28, 6:04am

Tue Jul 28, 5:04am

Tue Jul 28, 4:04am

Tue Jul 28, 3:04am

Tue Jul 28, 2:04am

Tue Jul 28, 1:04am

Tue Jul 28, 12:05am

Mon Jul 27, 11:04pm

Mon Jul 27, 10:05pm

Mon Jul 27, 9:05pm

Mon Jul 27, 8:04pm

Mon Jul 27, 7:04pm

Mon Jul 27, 6:05pm

Mon Jul 27, 5:05pm

Mon Jul 27, 4:04pm

Mon Jul 27, 3:04pm

Mon Jul 27, 2:04pm

Mon Jul 27, 1:04pm

Mon Jul 27, 12:04pm

Mon Jul 27, 11:04am

Mon Jul 27, 10:04am

Mon Jul 27, 9:04am

Mon Jul 27, 8:04am

Meta data:

ID: 56d7c3f5-643d-48c0-ab7e-987f44c55f62
Link: https://api.weather.gov/products/56d7c3f5-643d-48c0-ab7e-987f44c55f62